| time (UTC) | temp C | wind direction | speed KPH | gust KPH | rain 1hr cm | rain 24hr cm | rain mn cm | humidity % | barometer mb |
| 20260502190057 | 21 | 226 | 8.0 | 14.5 | 0.00 | 0.00 | 0.00 | 25 | 1020.4 |
| 20260502184603 | 21 | 203 | 8.0 | 16.1 | 0.00 | 0.00 | 0.00 | 28 | 1020.7 |
| 20260502183101 | 21 | 205 | 8.0 | 25.7 | 0.00 | 0.00 | 0.00 | 23 | 1020.9 |
| 20260502181557 | 21 | 221 | 4.8 | 17.7 | 0.00 | 0.00 | 0.00 | 26 | 1020.8 |
| 20260502163101 | 18 | 252 | 3.2 | 9.7 | 0.00 | 0.00 | 0.00 | 33 | 1021.3 |
| 20260502161556 | 18 | 255 | 1.6 | 6.4 | 0.00 | 0.00 | 0.00 | 34 | 1021.3 |
| 20260502151613 | 15 | 0 | 1.6 | 4.8 | 0.00 | 0.00 | 0.00 | 34 | 1021.5 |
| 20260502123059 | 5 | 75 | 0.0 | 3.2 | 0.00 | 0.00 | 0.00 | 63 | 1020.9 |
| 20260502121556 | 5 | 0 | 0.0 | 0.0 | 0.00 | 0.00 | 0.00 | 62 | 1020.8 |
| 20260502114602 | 6 | 75 | 0.0 | 4.8 | 0.00 | 0.00 | 0.00 | 58 | 1020.9 |
| 20260502113120 | 5 | 65 | 3.2 | 6.4 | 0.00 | 0.00 | 0.00 | 58 | 1020.8 |
| 20260502111602 | 5 | 61 | 1.6 | 8.0 | 0.00 | 0.00 | 0.00 | 59 | 1020.9 |
| 20260502110056 | 5 | 61 | 4.8 | 6.4 | 0.00 | 0.00 | 0.00 | 61 | 1020.9 |
| 20260502104608 | 5 | 53 | 3.2 | 6.4 | 0.00 | 0.00 | 0.00 | 63 | 1020.9 |
| 20260502103058 | 5 | 66 | 3.2 | 6.4 | 0.00 | 0.00 | 0.00 | 66 | 1020.9 |
| 20260502101611 | 6 | 42 | 1.6 | 8.0 | 0.00 | 0.00 | 0.00 | 68 | 1020.9 |
| 20260502090118 | 5 | 81 | 1.6 | 4.8 | 0.00 | 0.00 | 0.00 | 65 | 1020.9 |
| 20260502070116 | 7 | 35 | 4.8 | 6.4 | 0.00 | 0.00 | 0.00 | 65 | 1020.3 |
| 20260502064558 | 7 | 121 | 1.6 | 6.4 | 0.00 | 0.00 | 0.00 | 62 | 1020.5 |
| 20260502063121 | 7 | 111 | 3.2 | 6.4 | 0.00 | 0.00 | 0.00 | 62 | 1020.4 |
| 20260502061600 | 7 | 149 | 3.2 | 6.4 | 0.00 | 0.00 | 0.00 | 62 | 1020.4 |
| 20260502060100 | 7 | 120 | 1.6 | 3.2 | 0.00 | 0.00 | 0.00 | 62 | 1020.3 |
| 20260502054615 | 7 | 120 | 0.0 | 3.2 | 0.00 | 0.00 | 0.00 | 60 | 1020.3 |
| 20260502053058 | 8 | 0 | 0.0 | 3.2 | 0.00 | 0.00 | 0.00 | 59 | 1020.2 |
| 20260502051603 | 8 | 0 | 0.0 | 4.8 | 0.00 | 0.00 | 0.00 | 57 | 1020.2 |
| 20260502050057 | 8 | 120 | 0.0 | 1.6 | 0.00 | 0.00 | 0.00 | 57 | 1020.1 |
| 20260502044558 | 9 | 0 | 0.0 | 4.8 | 0.00 | 0.00 | 0.00 | 54 | 1020.2 |
| 20260502043112 | 10 | 120 | 1.6 | 6.4 | 0.00 | 0.00 | 0.00 | 56 | 1020.1 |
| 20260502041624 | 9 | 113 | 3.2 | 9.7 | 0.00 | 0.00 | 0.00 | 60 | 1020.1 |
| 20260502040104 | 10 | 0 | 0.0 | 0.0 | 0.00 | 0.00 | 0.00 | 60 | 1019.9 |
| 20260502034600 | 10 | 0 | 0.0 | 0.0 | 0.00 | 0.00 | 0.00 | 57 | 1019.7 |
| 20260502033058 | 11 | 0 | 0.0 | 1.6 | 0.00 | 0.00 | 0.00 | 55 | 1019.7 |
| 20260502031602 | 12 | 300 | 1.6 | 3.2 | 0.00 | 0.00 | 0.00 | 53 | 1019.5 |
| 20260502030117 | 12 | 0 | 0.0 | 3.2 | 0.00 | 0.00 | 0.00 | 51 | 1019.2 |
| 20260502024605 | 13 | 300 | 1.6 | 4.8 | 0.00 | 0.00 | 0.00 | 49 | 1019.1 |
| 20260502023132 | 14 | 285 | 1.6 | 8.0 | 0.00 | 0.00 | 0.00 | 45 | 1019.1 |
| 20260502021559 | 15 | 291 | 3.2 | 11.3 | 0.00 | 0.00 | 0.00 | 41 | 1018.9 |
| 20260502014607 | 17 | 279 | 6.4 | 17.7 | 0.00 | 0.00 | 0.00 | 37 | 1018.8 |
| 20260502013102 | 17 | 244 | 8.0 | 16.1 | 0.00 | 0.00 | 0.00 | 34 | 1018.7 |
| 20260502011607 | 17 | 283 | 8.0 | 17.7 | 0.00 | 0.00 | 0.00 | 35 | 1018.5 |
| 20260502010056 | 18 | 325 | 9.7 | 17.7 | 0.00 | 0.00 | 0.00 | 35 | 1018.5 |
| 20260502004557 | 19 | 296 | 9.7 | 19.3 | 0.00 | 0.00 | 0.00 | 32 | 1018.6 |
| 20260502003056 | 19 | 328 | 12.9 | 22.5 | 0.00 | 0.00 | 0.00 | 30 | 1018.6 |
| 20260502001601 | 20 | 296 | 11.3 | 20.9 | 0.00 | 0.00 | 0.00 | 29 | 1018.7 |
| 20260502000109 | 20 | 321 | 9.7 | 24.1 | 0.00 | 0.00 | 0.00 | 30 | 1018.7 |
| 20260501234558 | 19 | 317 | 11.3 | 25.7 | 0.00 | 0.00 | 0.00 | 31 | 1018.7 |
| 20260501233119 | 19 | 269 | 11.3 | 27.4 | 0.00 | 0.00 | 0.00 | 31 | 1018.8 |
| 20260501231626 | 19 | 273 | 11.3 | 25.7 | 0.00 | 0.00 | 0.00 | 32 | 1018.9 |
| 20260501230123 | 19 | 323 | 11.3 | 25.7 | 0.00 | 0.00 | 0.00 | 33 | 1019.0 |
| 20260501224608 | 18 | 301 | 14.5 | 25.7 | 0.00 | 0.00 | 0.00 | 31 | 1019.0 |
| 20260501223102 | 19 | 269 | 16.1 | 25.7 | 0.00 | 0.00 | 0.00 | 30 | 1019.1 |
| 20260501221611 | 19 | 290 | 14.5 | 27.4 | 0.00 | 0.00 | 0.00 | 31 | 1019.5 |
| 20260501220106 | 18 | 265 | 14.5 | 30.6 | 0.00 | 0.00 | 0.00 | 31 | 1019.6 |
| 20260501214559 | 19 | 292 | 12.9 | 30.6 | 0.00 | 0.00 | 0.00 | 29 | 1019.6 |
| 20260501213101 | 18 | 313 | 14.5 | 33.8 | 0.00 | 0.00 | 0.00 | 32 | 1019.9 |
| 20260501211558 | 18 | 312 | 16.1 | 27.4 | 0.00 | 0.00 | 0.00 | 33 | 1020.1 |
| 20260501204557 | 18 | 285 | 12.9 | 32.2 | 0.00 | 0.00 | 0.00 | 35 | 1020.4 |
| 20260501203056 | 18 | 307 | 12.9 | 29.0 | 0.00 | 0.00 | 0.00 | 35 | 1020.4 |
| 20260501201602 | 18 | 269 | 14.5 | 29.0 | 0.00 | 0.00 | 0.00 | 36 | 1020.2 |
| 20260501200059 | 17 | 288 | 14.5 | 27.4 | 0.00 | 0.00 | 0.00 | 37 | 1020.4 |
| 20260501194600 | 18 | 255 | 11.3 | 25.7 | 0.00 | 0.00 | 0.00 | 34 | 1020.5 |
| 20260501193057 | 18 | 206 | 6.4 | 17.7 | 0.00 | 0.00 | 0.00 | 38 | 1020.6 |
| 20260501191557 | 18 | 257 | 9.7 | 22.5 | 0.00 | 0.00 | 0.00 | 36 | 1020.6 |